Theta_e
315 316 323 320 319 320 320 321 323 323 317 314 319 320 320 320 320 320 319 317 317 315 314 313 310 307 305 303 304 306 308 308 308 308 307 306 307 308 310 311 309 309 307 307
315 317 318 316 317 317 318 320 323 322 315 313 319 319 319 320 317 316 317 316 315 316 314 312 308 306 304 304 305 308 308 308 308 307 306 305 306 308 310 311 310 308 308 308
319 319 315 314 315 316 318 321 326 321 317 317 315 325 328 318 314 314 314 314 313 313 314 311 308 306 304 304 307 308 308 307 307 306 306 307 309 311 312 312 310 309 308 308
316 316 314 314 316 316 320 318 317 316 318 325 316 337 328 324 319 315 313 314 314 312 313 310 308 306 304 305 308 308 308 307 306 306 307 307 309 311 311 313 310 310 309 310
316 314 315 317 318 317 319 313 315 315 317 318 321 326 334 324 320 316 315 314 313 312 312 310 308 305 304 306 308 308 308 308 306 306 307 306 309 310 312 313 313 311 311 311
314 310 313 315 311 313 313 314 314 315 317 328 326 324 337 335 320 315 315 313 312 311 311 309 306 303 304 306 308 308 308 308 307 306 307 306 308 309 311 313 314 316 315 315
313 313 311 310 313 312 313 316 332 335 327 328 314 317 326 322 313 312 315 313 312 311 309 307 304 303 304 306 308 308 308 308 307 306 306 306 307 309 310 312 314 314 319 318
317 318 312 311 314 315 314 316 322 331 328 322 313 319 324 315 314 310 313 313 311 310 309 307 305 303 304 305 307 308 308 308 307 306 306 306 307 307 310 311 314 316 316 317
316 316 309 310 309 312 314 314 313 316 312 318 317 318 318 311 312 311 311 313 312 310 309 307 305 302 303 304 307 308 307 306 306 306 306 306 307 308 308 311 314 315 316 316
313 316 310 309 308 309 311 311 314 315 329 327 321 320 322 315 313 312 312 312 313 311 309 307 305 302 302 304 306 307 307 306 306 305 305 306 307 308 309 310 313 315 316 317
312 315 313 309 310 312 310 311 312 315 317 323 324 322 316 315 312 313 313 313 312 313 310 308 305 302 301 303 305 307 307 307 305 304 305 306 307 306 308 309 310 312 316 316
311 315 319 314 310 309 311 311 312 316 319 315 314 320 312 311 309 309 311 313 313 312 311 308 306 302 301 303 304 306 307 307 306 304 304 304 307 306 306 306 308 309 311 314
311 318 322 317 311 308 311 311 312 314 311 317 322 321 311 309 308 309 311 311 312 311 311 309 306 303 301 302 304 306 306 307 306 304 304 303 305 305 305 305 305 309 309 311
310 314 320 324 319 314 311 312 311 313 317 317 317 320 315 312 311 310 310 311 311 310 309 309 306 304 301 301 303 305 306 306 306 304 304 303 304 305 305 304 307 308 307 308
310 317 312 312 313 311 312 312 312 312 314 318 320 317 317 317 313 312 311 311 310 310 309 308 307 305 302 300 301 304 306 305 305 304 304 302 305 305 305 305 303 305 307 307
310 316 309 311 311 311 312 312 312 313 313 314 315 315 313 313 314 312 312 311 310 309 309 308 307 306 303 300 301 303 305 305 304 303 303 302 305 304 304 303 304 302 303 304
312 313 314 321 309 310 316 312 313 313 312 313 315 314 314 313 313 313 313 313 311 309 309 308 308 306 304 301 300 302 304 304 302 302 302 300 302 304 303 303 302 302 300 301
309 312 314 320 314 320 319 311 312 313 313 312 312 313 313 313 313 314 312 312 311 309 309 308 308 307 305 302 300 301 303 304 301 301 301 299 299 301 301 302 301 301 300 299
309 311 317 319 319 318 315 310 312 313 306 305 304 304 307 311 310 310 311 311 311 310 309 309 307 306 306 303 300 300 303 303 300 300 300 298 299 299 300 300 300 300 299 299
309 310 313 317 321 321 306 302 302 308 315 300 302 303 303 306 313 313 311 309 308 306 304 304 304 303 303 303 300 299 302 302 301 300 300 299 299 299 300 300 300 301 299 299
311 311 312 316 319 315 298 300 301 316 307 297 297 299 299 304 309 305 303 303 302 301 301 300 302 302 301 301 299 299 300 301 302 301 301 300 300 299 300 300 300 300 299 298
303 302 311 314 318 316 296 297 300 296 296 294 294 294 295 299 302 302 302 301 300 300 299 298 299 299 298 297 297 297 299 300 301 301 300 300 300 299 299 298 298 296 296 295
301 296 295 299 301 298 295 295 295 294 294 293 292 292 291 293 295 295 298 298 298 296 295 294 296 296 296 295 295 296 297 298 299 300 299 299 299 298 297 297 295 293 293 292
295 293 293 294 298 297 295 294 292 292 292 291 290 290 289 289 291 290 291 293 292 292 291 291 293 293 294 293 293 294 295 296 297 299 298 298 297 297 296 295 294 293 291 290
289 289 290 293 293 294 295 292 289 289 288 288 287 288 288 287 286 286 289 288 287 287 287 287 288 289 290 289 291 291 292 293 295 296 296 296 296 295 294 294 294 293 294 293
289 289 291 292 292 292 291 289 286 287 286 285 284 284 285 286 284 284 284 284 284 284 284 283 283 284 285 286 288 290 290 291 292 293 294 294 295 295 294 293 292 293 295 294
Wind_Speed
6 8 10 14 15 16 9 11 14 11 3 5 13 19 22 20 21 22 19 16 16 16 13 15 14 12 8 5 0 4 7 8 9 11 12 11 12 13 13 13 6 5 4 4
5 12 12 3 8 10 11 12 12 10 1 4 14 22 24 18 9 10 11 10 12 13 14 12 14 12 8 5 1 3 6 6 7 8 10 9 13 12 16 12 3 1 1 1
14 1 2 8 9 11 12 11 4 7 7 12 12 12 6 5 6 6 6 4 4 10 14 13 12 12 8 5 2 2 5 6 5 7 9 9 9 10 9 16 4 3 3 3
12 11 7 9 14 12 13 3 7 6 6 5 2 7 5 9 8 7 7 7 7 9 13 13 12 12 9 5 2 2 5 5 4 6 8 10 9 9 11 14 4 5 5 3
6 8 10 11 6 11 1 2 3 3 6 8 6 4 6 4 5 4 5 5 5 9 13 13 11 11 8 5 2 2 4 3 4 5 7 9 9 9 11 7 6 9 11 5
3 1 6 4 4 2 8 3 3 3 4 5 4 5 4 3 1 3 5 6 8 11 12 12 12 10 7 5 2 1 3 3 3 5 5 7 7 9 12 10 8 9 13 11
7 7 4 4 5 4 6 5 2 3 4 5 2 5 11 5 3 3 8 9 10 11 12 12 11 10 8 5 3 1 2 2 2 3 4 6 4 5 7 9 7 8 10 13
12 8 14 13 8 6 11 5 5 5 3 2 2 6 5 2 1 5 7 11 11 12 11 11 10 10 9 6 4 2 1 2 2 1 3 3 3 2 4 6 7 7 11 11
9 7 3 7 2 3 8 8 2 4 2 3 7 9 10 8 6 9 9 12 12 13 12 12 10 11 10 8 7 5 2 1 2 1 1 1 1 2 2 3 7 9 8 9
4 4 5 4 3 5 4 4 3 4 4 6 6 5 10 4 9 11 13 13 14 13 13 12 11 13 11 10 8 6 4 3 3 3 3 2 2 0 2 2 6 7 8 9
11 8 6 5 11 14 6 7 6 3 4 4 4 5 1 2 2 11 11 13 13 15 14 13 11 14 13 11 10 9 7 5 5 4 5 4 5 2 3 3 4 7 8 8
19 7 8 8 3 6 14 14 17 6 6 5 2 7 3 2 2 1 5 10 12 12 13 13 12 15 15 14 12 12 10 8 6 6 6 6 7 5 5 5 4 6 9 11
12 5 4 3 4 4 8 14 16 14 3 8 5 4 1 3 3 4 3 10 10 11 13 12 12 12 16 16 15 14 12 11 8 7 7 7 8 8 8 6 6 7 8 10
7 3 10 10 3 8 7 16 19 18 7 7 15 11 5 5 6 7 7 10 11 11 12 12 12 12 17 17 17 16 14 14 10 8 8 8 9 9 9 8 9 9 9 10
3 4 5 12 8 4 5 11 21 25 24 12 8 21 18 7 7 8 8 9 10 13 14 15 14 13 16 17 18 17 16 15 13 10 9 9 10 11 11 10 9 11 12 11
5 2 1 4 7 8 5 11 15 24 22 25 20 16 7 9 7 11 9 8 10 13 14 14 14 13 13 19 20 20 19 17 15 12 11 10 11 11 12 11 10 9 11 13
6 4 4 5 2 2 8 20 18 14 14 21 21 19 16 13 11 13 13 12 13 12 11 12 15 14 19 23 24 24 22 19 17 15 13 11 13 13 13 13 13 11 9 10
4 4 3 1 5 7 3 3 5 21 15 17 17 16 17 12 12 12 7 8 10 11 10 9 8 12 18 21 24 23 23 23 20 18 16 15 16 16 16 16 15 14 14 12
9 4 3 4 6 8 7 5 3 7 5 20 17 18 20 19 12 14 14 12 13 8 6 5 6 8 12 20 24 25 25 24 22 21 20 20 21 20 19 19 19 18 18 17
13 10 5 4 5 7 7 17 16 10 7 21 20 19 22 19 10 9 11 2 4 2 2 1 2 5 8 14 21 25 25 26 25 26 26 26 25 24 24 23 21 20 19 17
2 3 12 11 5 2 16 16 11 7 6 18 19 19 20 15 13 12 8 7 7 6 7 6 4 5 7 9 17 21 23 26 30 28 31 30 30 28 27 25 24 22 21 18
3 4 2 3 6 4 21 9 6 7 9 15 18 18 21 20 18 17 11 11 11 10 12 12 8 6 4 7 15 17 20 22 23 28 33 34 34 33 30 28 26 24 22 21
1 3 4 5 3 2 10 11 7 8 10 16 16 17 18 19 20 19 17 16 14 15 15 18 13 11 8 3 9 11 15 18 23 26 30 33 34 34 33 31 29 27 25 25
1 3 2 6 4 7 7 5 8 8 9 9 11 12 14 17 18 17 15 15 14 20 20 23 20 16 13 15 7 10 9 13 20 25 28 30 33 34 35 33 32 31 30 28
8 6 3 6 5 4 5 9 7 8 8 10 10 10 11 12 14 16 14 14 14 19 23 23 20 18 17 20 16 11 8 11 18 22 24 26 28 29 30 35 35 37 38 40
4 4 3 4 4 4 6 7 6 8 9 10 11 14 14 10 11 12 12 16 19 20 21 22 23 23 24 22 22 17 11 7 15 19 20 21 23 23 26 25 26 33 40 40
Wind_Direction
196 214 213 222 224 257 291 277 275 280 120 286 266 278 283 279 270 261 254 248 238 212 208 189 183 175 173 170 194 319 334 343 350 348 350 337 338 329 326 326 337 292 277 228
179 236 235 215 274 242 249 265 273 281 181 267 296 292 285 287 275 272 255 245 239 214 192 174 176 172 174 168 191 343 355 348 354 346 342 317 322 317 317 336 358 8 169 201
231 156 287 194 214 224 230 247 263 279 309 254 295 279 264 211 229 226 220 209 217 219 187 183 179 174 171 168 170 16 10 353 353 350 344 339 341 343 353 4 37 91 97 107
242 240 181 204 229 223 255 232 244 279 307 297 20 289 298 268 264 217 220 203 197 198 187 180 175 171 173 164 151 24 20 356 353 5 355 342 330 346 330 355 46 94 105 141
181 184 202 215 222 196 194 124 215 250 271 313 190 255 263 254 268 188 182 173 172 178 181 172 171 168 164 167 153 35 26 351 358 13 6 344 349 344 348 29 60 103 96 100
270 39 214 233 92 219 127 160 210 248 263 248 180 231 277 237 192 140 142 147 153 158 160 164 159 161 174 174 159 62 22 338 4 17 10 353 355 350 8 44 55 114 119 118
190 202 154 159 136 137 193 199 240 233 213 255 139 226 259 256 219 188 164 155 156 158 160 162 168 178 182 190 179 122 358 333 347 20 24 357 4 0 22 35 58 67 102 123
203 206 187 180 217 180 193 230 235 257 242 12 139 234 252 43 111 140 154 154 157 168 173 178 180 181 184 192 198 188 291 330 314 54 28 2 3 43 29 52 78 101 103 114
200 217 109 195 165 193 159 213 359 296 113 273 239 249 267 173 185 187 165 167 175 179 182 184 183 187 190 196 205 198 206 277 256 177 81 28 335 40 57 94 112 138 137 143
226 208 205 145 194 217 235 132 159 223 230 248 233 248 251 204 219 199 195 191 187 184 185 187 189 192 197 199 203 203 201 216 230 205 186 183 206 226 126 146 130 126 137 150
219 234 131 154 207 187 175 206 224 270 238 255 279 241 57 298 163 198 204 199 190 188 188 190 192 195 197 200 206 210 208 207 222 203 190 185 201 225 204 170 165 149 153 153
211 238 206 201 67 280 242 213 204 215 196 238 347 257 140 137 140 221 244 187 194 189 188 189 191 191 195 203 210 214 211 210 213 208 191 186 192 203 224 185 190 173 172 169
171 208 150 251 212 197 223 214 235 238 324 210 193 241 163 161 213 215 214 175 181 187 188 191 190 195 199 203 210 213 211 214 206 204 199 191 192 198 217 208 183 194 188 187
199 215 228 223 61 137 199 204 208 212 220 217 227 250 169 202 214 205 195 186 179 186 192 195 199 203 204 204 206 211 211 210 204 201 202 196 197 200 208 220 215 209 196 193
220 257 235 262 265 226 232 211 206 214 221 216 244 227 246 233 215 195 184 182 187 196 200 200 200 202 204 205 207 208 211 209 205 198 201 203 197 202 211 217 218 210 201 195
189 243 265 260 251 239 257 243 224 223 229 247 263 266 288 300 263 216 241 242 226 220 216 208 202 200 203 203 204 203 204 205 204 200 203 200 196 195 197 198 190 191 183 176
169 186 182 234 141 155 268 233 225 222 220 230 238 247 263 261 256 258 264 244 230 232 215 205 205 204 202 203 199 200 198 194 198 200 197 194 197 194 191 186 177 178 182 180
183 185 191 208 142 211 258 81 244 221 230 238 258 258 267 285 285 278 233 254 234 228 218 218 215 213 209 201 199 198 192 190 190 194 194 194 198 195 193 186 183 180 183 180
205 191 219 225 212 320 286 37 330 172 93 19 359 344 325 309 294 277 261 254 260 223 218 240 249 253 236 197 199 194 188 187 186 192 193 195 198 194 193 192 193 192 183 180
211 209 215 179 234 225 40 331 329 303 157 10 355 345 345 329 284 300 351 243 282 359 10 319 249 253 241 211 195 194 191 187 191 192 192 201 201 200 197 198 196 197 195 192
286 226 221 227 229 103 340 329 303 195 357 352 353 347 340 338 318 339 356 17 28 25 12 2 341 279 260 218 193 199 199 200 199 192 197 201 203 203 204 203 203 200 199 200
349 330 319 249 228 209 354 33 55 348 349 354 353 351 343 331 340 351 358 6 7 9 12 359 341 350 313 218 198 206 213 213 206 199 203 204 205 205 205 206 206 206 206 203
211 40 308 356 31 12 69 85 75 10 358 357 351 351 350 347 354 358 360 4 6 8 3 360 354 350 2 302 219 225 230 218 208 204 205 209 209 210 210 207 208 206 208 211
5 147 279 330 172 322 329 76 35 4 354 353 351 344 353 353 353 351 355 3 1 358 356 352 356 1 4 4 325 256 245 228 217 213 212 213 213 213 215 215 216 209 206 205
271 294 291 270 270 278 38 13 12 3 2 351 350 346 348 350 353 351 348 351 352 350 349 350 351 347 346 346 347 342 288 240 225 222 221 218 217 216 215 219 216 216 223 220
242 270 266 297 62 321 347 357 16 349 351 350 342 337 336 346 343 343 342 344 346 343 344 346 343 341 339 339 339 348 341 253 232 229 221 218 213 215 219 221 225 230 235 234